Theta_e
351 352 351 348 348 345 344 343 341 342 344 346 347 349 351 352 351 351 352 356 354 352 347 345 344 343 342 341 340 338 336 333 330 329 328 330 331 331 331 330 328 329 329
351 351 352 350 348 345 344 343 340 341 343 346 349 352 352 352 353 352 351 353 352 351 349 345 344 343 342 342 340 338 336 333 332 330 330 331 331 332 332 330 328 327 326
353 352 350 348 347 348 347 346 342 343 344 347 351 353 354 355 353 353 352 353 348 347 347 345 344 342 341 341 341 340 338 336 334 331 331 331 331 329 327 325 324 323 322
353 352 347 347 348 348 346 343 341 339 344 347 349 352 353 353 353 353 352 349 347 348 344 343 339 339 340 339 339 339 339 336 335 333 331 328 325 323 323 323 322 322 323
353 351 347 347 355 347 344 341 339 342 344 347 349 354 357 354 353 351 352 349 348 347 346 338 336 338 337 338 338 337 334 330 328 326 325 323 322 322 321 320 320 321 322
353 352 349 350 350 346 344 343 345 344 346 347 346 349 351 351 350 349 347 346 348 345 344 343 342 335 331 330 329 328 328 326 324 324 323 322 321 320 319 319 319 319 319
353 353 349 349 349 346 346 350 345 347 347 351 347 343 341 343 344 344 345 344 338 339 341 341 338 335 331 327 324 323 323 322 322 321 320 318 318 318 318 318 317 316 317
354 353 352 349 350 343 348 351 350 342 347 350 343 343 334 333 336 337 338 336 335 335 333 329 329 328 326 326 321 316 317 316 316 316 315 315 315 315 317 316 316 316 316
354 354 352 350 352 349 342 352 351 351 342 347 350 343 338 334 333 331 331 331 331 329 329 325 326 324 324 322 319 316 312 311 312 312 313 313 314 315 316 316 316 316 316
354 353 353 350 351 345 345 349 351 350 352 344 347 346 346 340 330 324 327 326 326 325 324 323 324 321 317 316 313 310 309 309 309 310 311 312 312 313 313 315 315 316 316
354 351 352 351 350 345 349 355 356 356 350 346 345 342 341 339 337 331 327 324 324 323 322 321 320 319 318 314 312 310 309 309 307 307 309 310 311 312 312 313 313 314 315
348 353 349 351 351 350 352 352 355 354 357 353 348 342 339 337 333 332 327 330 325 323 321 319 321 317 314 312 308 306 308 307 305 306 307 307 309 310 311 311 312 312 313
344 350 352 353 350 352 351 354 355 355 356 350 348 342 342 340 338 332 329 327 321 324 319 320 320 316 311 309 309 307 307 306 304 306 305 305 307 308 308 308 309 310 311
345 351 354 350 350 349 349 353 351 354 355 350 345 337 330 331 324 324 322 319 317 315 316 317 318 313 309 309 308 306 308 309 305 304 303 304 306 306 305 306 307 307 307
352 350 352 349 349 347 348 353 352 351 348 341 328 321 319 314 313 312 315 315 313 306 307 314 307 310 309 308 307 307 308 308 305 304 302 304 305 303 303 304 304 305 305
352 350 349 349 348 348 348 351 344 342 333 326 318 312 308 306 306 304 306 308 307 305 302 305 305 308 309 308 307 308 308 307 308 302 302 302 303 302 302 302 302 303 304
352 350 348 347 346 346 345 336 334 326 325 316 311 306 303 304 302 305 307 305 304 305 303 304 307 307 308 307 307 308 308 307 306 305 301 301 301 301 301 301 301 301 301
350 349 349 341 338 334 330 323 322 323 314 306 303 301 300 302 303 307 303 306 305 306 303 302 304 303 304 307 306 307 305 305 305 306 304 300 303 302 301 300 300 300 301
349 346 343 329 326 319 321 316 316 310 306 307 300 299 300 301 302 306 304 303 302 302 301 300 299 302 304 304 304 306 305 306 303 306 305 305 304 304 303 300 300 301 300
346 344 341 334 326 319 315 311 310 306 307 305 301 300 301 302 303 304 302 303 303 302 301 300 300 301 302 304 303 301 300 302 302 304 306 304 305 305 305 302 301 300 299
338 327 328 326 318 311 308 307 307 304 305 300 301 302 302 302 302 302 302 301 302 299 299 299 299 300 299 299 299 300 299 300 303 303 302 304 304 303 304 304 301 300 299
321 317 315 312 311 309 303 303 304 303 301 300 299 302 302 302 301 299 298 297 299 302 300 299 298 297 299 298 299 298 298 297 296 303 301 302 305 302 303 302 298 298 298
313 310 308 307 305 304 301 302 303 302 302 301 301 300 300 300 300 298 297 297 297 296 295 301 299 297 297 297 298 298 298 298 297 301 302 299 303 301 303 301 299 298 297
309 307 305 304 304 303 301 301 302 302 303 303 303 301 301 301 299 299 300 299 298 297 298 298 298 297 297 297 297 298 300 300 302 303 303 296 301 298 302 301 300 299 297
307 304 304 303 303 302 301 300 302 303 302 301 300 300 300 296 293 295 298 298 298 298 293 293 292 292 292 293 293 298 296 297 297 299 301 297 297 296 300 298 298 297 296
303 303 300 302 301 299 298 297 301 301 299 298 297 295 294 295 292 293 300 299 297 296 298 300 300 299 298 298 294 300 298 296 297 297 299 294 294 294 292 299 297 296 295
Wind_Speed
10 10 8 8 8 8 9 8 7 7 9 9 9 7 7 7 4 4 5 11 8 8 9 8 8 9 8 8 8 7 6 5 3 2 3 7 10 12 12 13 17 17 18
10 10 9 9 9 8 8 8 7 8 8 9 9 7 7 7 7 5 4 10 9 8 8 8 9 9 8 8 8 9 7 6 6 4 6 10 13 14 14 16 19 20 20
12 12 11 10 9 8 8 7 7 8 8 7 7 7 7 6 6 5 4 3 10 9 7 7 9 9 9 9 10 10 10 9 7 6 8 11 12 13 16 18 19 18 18
14 13 11 11 10 9 9 9 9 9 9 9 7 6 5 6 7 6 6 4 4 3 10 8 3 7 10 10 10 11 11 6 7 7 10 11 13 15 16 17 18 19 19
16 12 11 10 9 8 9 8 8 8 9 8 8 4 6 3 5 5 3 5 5 5 4 11 5 6 4 6 5 6 7 5 6 10 12 13 15 16 17 18 19 19 19
17 14 10 10 11 10 10 9 9 9 8 9 7 5 2 3 3 3 4 5 2 4 4 4 5 8 11 11 10 9 9 10 11 12 14 15 17 18 17 17 17 17 19
16 16 12 12 12 11 10 11 10 10 9 7 6 6 4 4 4 3 3 3 3 3 1 0 3 4 7 10 11 10 10 12 12 14 15 16 18 19 18 18 15 15 17
17 16 14 13 15 11 11 9 12 11 10 9 10 6 5 6 5 4 3 4 3 3 3 1 2 3 4 5 7 4 11 14 15 16 17 18 19 19 18 18 16 16 17
17 17 17 13 13 12 12 12 13 13 11 9 12 7 5 6 7 6 5 4 4 4 2 3 1 3 4 6 5 4 11 13 16 17 18 19 19 18 18 17 17 17 18
18 18 16 15 12 13 13 12 12 13 12 12 10 9 5 5 4 4 4 6 5 5 3 4 1 2 4 5 6 2 8 14 17 18 18 19 20 20 18 18 18 20 21
18 18 17 16 15 12 12 13 14 14 11 11 11 7 7 6 5 3 7 6 6 5 4 4 3 3 3 5 6 5 12 14 17 17 18 19 20 18 17 17 19 21 23
11 18 18 16 16 14 14 15 15 15 13 9 7 7 6 4 7 9 7 3 5 7 4 3 2 3 4 5 7 7 14 14 15 17 18 18 17 17 18 19 21 22 22
10 16 19 16 15 15 14 14 15 14 12 11 11 7 4 0 3 4 4 1 4 4 4 4 2 3 4 5 7 12 17 10 13 17 17 16 15 17 18 20 21 21 22
13 16 18 18 18 18 16 15 13 11 12 9 11 8 8 5 4 4 4 5 4 4 4 3 2 3 4 6 9 12 11 11 14 16 16 15 15 17 20 21 20 21 22
10 16 19 19 19 18 17 15 11 11 9 9 11 11 10 6 6 5 4 7 5 5 4 6 2 3 5 7 9 11 12 14 19 12 14 14 14 16 19 21 21 21 22
15 16 15 18 19 17 16 11 10 11 13 10 10 11 12 9 5 5 5 5 6 5 4 3 3 5 7 7 9 12 12 16 11 6 10 13 16 19 20 21 21 22 19
14 14 15 14 16 13 10 12 13 16 16 17 14 13 13 12 5 3 1 3 4 5 3 3 2 5 7 8 10 11 10 11 9 5 9 12 13 16 19 19 18 18 18
13 14 15 9 9 12 11 13 16 17 18 15 14 15 13 8 9 2 5 6 6 4 4 3 5 6 6 8 11 12 10 10 10 9 9 8 10 12 14 14 15 15 16
14 14 13 17 14 16 12 7 15 18 16 17 12 15 13 12 6 3 5 3 4 3 4 3 5 5 6 7 10 9 10 10 9 14 5 9 12 11 11 8 12 14 16
15 14 15 17 17 16 19 13 16 18 19 16 13 10 14 11 7 7 6 4 5 2 3 4 4 5 6 9 8 11 11 10 11 9 7 13 13 8 4 6 10 17 19
6 10 14 15 17 18 19 14 16 16 19 16 11 7 11 16 15 11 4 5 3 3 4 4 5 6 8 9 11 11 11 11 12 10 12 11 10 8 8 6 10 19 21
14 15 15 17 16 10 30 32 19 16 16 15 13 15 12 19 19 18 16 15 10 6 7 6 6 7 8 10 10 11 11 12 13 10 12 12 10 11 10 8 12 17 20
16 17 16 16 16 20 27 32 26 14 14 15 16 15 14 12 14 11 12 12 11 11 8 6 6 7 9 11 12 13 13 13 11 11 10 13 12 12 11 7 8 16 21
18 17 17 18 18 16 28 28 25 18 13 13 16 14 17 13 9 8 8 7 8 8 7 6 6 7 8 10 12 12 12 13 10 9 11 12 11 13 9 7 16 18 22
14 15 18 21 19 17 26 29 22 18 19 17 17 17 16 12 7 2 8 8 7 5 7 6 5 7 10 10 8 11 11 11 11 10 13 14 12 13 10 8 11 21 23
17 13 17 16 22 18 19 22 19 16 18 15 17 16 19 12 9 9 7 6 7 6 6 6 6 4 5 3 7 9 10 11 11 10 14 11 10 11 7 9 13 10 11
Wind_Direction
194 199 200 206 195 200 190 201 210 196 205 213 223 217 218 214 189 228 160 168 185 191 195 191 200 204 208 204 215 219 217 225 229 253 291 306 305 306 306 309 322 317 314
188 198 208 207 203 207 205 201 198 199 217 212 211 220 229 211 206 209 207 159 183 197 202 207 218 222 223 224 228 234 236 239 251 273 292 304 302 308 311 314 320 321 320
191 205 205 207 206 198 211 209 196 211 215 216 221 199 215 210 207 206 241 257 160 189 211 223 237 245 248 252 247 246 243 240 253 269 283 301 319 320 317 319 319 315 311
201 204 206 204 203 194 202 206 202 202 212 210 215 224 220 190 211 200 236 257 245 231 180 204 281 293 280 270 273 280 264 265 277 272 299 325 321 319 315 313 315 311 306
200 207 215 204 196 200 200 202 210 214 200 221 218 185 241 201 213 220 236 244 240 266 291 132 110 32 328 293 316 8 57 25 341 329 327 325 317 313 318 314 315 314 315
194 201 206 205 203 200 201 200 208 202 222 211 215 170 163 178 206 207 218 242 323 288 269 307 185 107 74 60 47 28 10 6 343 333 326 324 320 314 305 311 306 320 316
197 202 204 193 205 212 208 187 192 211 209 203 182 175 141 164 201 234 227 228 185 212 86 46 294 335 135 124 70 37 16 357 338 324 321 315 305 305 305 307 308 309 316
200 203 206 189 195 196 207 197 201 198 218 195 215 211 192 176 180 201 213 213 213 198 154 107 39 36 333 327 58 48 14 347 333 326 316 311 311 307 309 307 306 311 318
206 207 204 203 186 205 196 201 199 207 205 200 232 209 222 236 157 175 198 213 197 209 191 195 55 17 6 321 311 353 15 341 330 325 319 320 317 308 309 313 308 298 299
213 206 206 208 190 199 203 184 207 199 227 197 198 231 270 331 212 173 202 206 213 212 227 233 158 78 348 338 338 18 356 336 332 327 318 318 317 319 319 312 309 303 304
213 212 209 204 202 208 201 204 201 201 204 224 197 196 208 236 234 269 251 187 217 220 219 226 350 326 325 320 321 358 335 328 329 321 320 320 319 320 318 310 312 310 308
205 209 211 208 208 207 198 203 199 199 227 219 183 202 187 181 232 233 253 244 235 171 202 227 244 312 322 325 305 355 328 325 317 318 323 318 316 318 321 321 319 314 312
202 208 207 206 206 203 205 204 200 203 204 194 188 179 174 27 332 323 314 329 234 153 187 205 253 303 317 319 333 5 322 315 320 319 321 317 314 315 322 324 319 318 315
194 209 207 206 211 205 208 200 202 200 199 179 160 117 98 64 31 24 329 301 232 220 174 272 161 325 332 337 324 330 317 317 330 313 322 318 315 329 334 326 321 320 316
207 207 209 208 208 209 202 198 206 188 156 142 108 95 96 75 38 23 14 317 305 302 288 126 307 104 346 328 343 325 315 336 308 322 331 322 321 337 332 330 326 322 321
215 213 199 207 209 205 197 183 153 149 129 117 99 101 90 77 51 43 14 1 338 350 302 360 33 10 349 330 331 321 322 302 312 328 337 323 330 337 336 332 330 326 325
229 211 212 209 208 185 162 131 137 121 124 113 110 99 89 88 67 22 21 16 18 355 309 84 0 27 336 328 327 331 318 312 326 37 352 337 322 332 331 329 333 328 329
218 214 210 170 145 121 107 122 125 131 124 120 113 102 99 93 73 332 74 44 30 8 347 17 32 347 336 324 332 316 335 322 324 4 308 304 320 320 314 329 334 329 337
226 210 147 114 110 108 91 128 131 122 118 114 119 110 123 111 128 101 64 67 100 16 15 18 356 343 330 2 327 327 325 324 328 329 33 342 330 303 302 327 340 356 351
224 215 170 149 134 128 121 149 135 117 121 111 103 145 121 107 112 104 87 76 46 9 15 29 359 335 354 349 335 341 332 342 337 350 348 340 323 310 15 356 17 356 344
158 122 134 137 133 139 123 153 118 121 121 119 114 115 93 116 100 68 87 60 23 15 36 17 10 352 1 344 350 335 331 338 341 357 344 333 324 345 350 352 2 7 346
124 120 117 128 128 120 133 122 130 124 125 121 128 107 111 98 94 91 83 69 43 38 57 9 19 358 352 348 344 339 338 344 347 350 331 339 342 347 348 16 27 10 352
128 122 122 121 119 121 130 123 130 129 134 132 135 135 113 98 102 107 110 111 80 64 40 12 9 8 348 349 336 334 346 341 330 324 359 337 357 348 346 32 33 18 357
131 127 122 126 127 134 131 131 134 127 131 130 122 103 104 110 102 117 105 94 80 64 36 22 22 2 349 349 340 330 326 325 323 359 23 345 357 343 334 41 8 15 355
127 126 127 127 135 137 140 136 129 129 124 116 100 98 98 99 100 119 104 94 80 69 166 174 190 230 247 252 302 335 348 335 347 348 37 344 0 336 323 19 355 352 347
115 118 114 124 129 133 133 137 131 127 119 107 95 81 70 91 62 16 95 94 80 57 19 13 35 198 272 18 230 335 343 340 353 348 27 339 348 354 329 6 346 344 340